| time (UTC) | temp C | wind direction | speed KPH | gust KPH | rain 1hr cm | rain 24hr cm | rain mn cm | humidity % | barometer mb |
| 20260504201545 | 21 | 263 | 4.8 | 8.0 | 0.00 | 0.00 | 0.00 | 37 | 1023.6 |
| 20260504201043 | 21 | 275 | 16.1 | 17.7 | 0.00 | 0.00 | 0.00 | 35 | 1024.0 |
| 20260504200539 | 21 | 174 | 3.2 | 3.2 | 0.00 | 0.00 | 0.00 | 38 | 1023.7 |
| 20260504200036 | 21 | 227 | 8.0 | 11.3 | 0.00 | 0.00 | 0.00 | 38 | 1024.0 |
| 20260504195532 | 21 | 214 | 4.8 | 8.0 | 0.00 | 0.00 | 0.00 | 36 | 1024.0 |
| 20260504195029 | 21 | 289 | 14.5 | 14.5 | 0.00 | 0.00 | 0.00 | 37 | 1024.3 |
| 20260504194525 | 21 | 294 | 4.8 | 8.0 | 0.00 | 0.00 | 0.00 | 38 | 1024.0 |
| 20260504194021 | 21 | 262 | 6.4 | 9.7 | 0.00 | 0.00 | 0.00 | 40 | 1024.3 |
| 20260504193518 | 21 | 266 | 9.7 | 17.7 | 0.00 | 0.00 | 0.00 | 39 | 1024.1 |
| 20260504193017 | 21 | 266 | 8.0 | 12.9 | 0.00 | 0.00 | 0.00 | 39 | 1024.4 |
| 20260504192514 | 21 | 227 | 6.4 | 8.0 | 0.00 | 0.00 | 0.00 | 41 | 1024.3 |
| 20260504192013 | 21 | 252 | 12.9 | 16.1 | 0.00 | 0.00 | 0.00 | 41 | 1024.7 |
| 20260504191510 | 21 | 202 | 8.0 | 9.7 | 0.00 | 0.00 | 0.00 | 41 | 1024.3 |
| 20260504191006 | 20 | 166 | 3.2 | 3.2 | 0.00 | 0.00 | 0.00 | 44 | 1024.8 |
| 20260504190502 | 21 | 234 | 6.4 | 9.7 | 0.00 | 0.00 | 0.00 | 43 | 1024.7 |
| 20260504185958 | 20 | 245 | 9.7 | 12.9 | 0.00 | 0.00 | 0.00 | 42 | 1024.9 |
| 20260504185455 | 21 | 319 | 17.7 | 22.5 | 0.00 | 0.00 | 0.00 | 43 | 1024.9 |
| 20260504184952 | 20 | 216 | 11.3 | 16.1 | 0.00 | 0.00 | 0.00 | 43 | 1025.0 |
| 20260504184447 | 21 | 210 | 4.8 | 4.8 | 0.00 | 0.00 | 0.00 | 43 | 1025.0 |
| 20260504183943 | 20 | 259 | 11.3 | 12.9 | 0.00 | 0.00 | 0.00 | 43 | 1024.9 |
| 20260504183440 | 20 | 295 | 17.7 | 24.1 | 0.00 | 0.00 | 0.00 | 42 | 1025.0 |
| 20260504182938 | 20 | 234 | 6.4 | 9.7 | 0.00 | 0.00 | 0.00 | 45 | 1024.8 |
| 20260504182435 | 19 | 183 | 4.8 | 4.8 | 0.00 | 0.00 | 0.00 | 47 | 1025.0 |
| 20260504181933 | 20 | 304 | 8.0 | 11.3 | 0.00 | 0.00 | 0.00 | 45 | 1024.9 |
| 20260504181429 | 20 | 199 | 9.7 | 11.3 | 0.00 | 0.00 | 0.00 | 44 | 1024.9 |
| 20260504180928 | 20 | 278 | 11.3 | 14.5 | 0.00 | 0.00 | 0.00 | 45 | 1025.1 |
| 20260504180426 | 19 | 197 | 14.5 | 20.9 | 0.00 | 0.00 | 0.00 | 45 | 1025.1 |
| 20260504175924 | 19 | 239 | 8.0 | 12.9 | 0.00 | 0.00 | 0.00 | 46 | 1025.1 |
| 20260504175421 | 19 | 266 | 11.3 | 16.1 | 0.00 | 0.00 | 0.00 | 46 | 1024.9 |
| 20260504174919 | 19 | 237 | 11.3 | 20.9 | 0.00 | 0.00 | 0.00 | 46 | 1025.3 |
| 20260504174416 | 19 | 249 | 8.0 | 11.3 | 0.00 | 0.00 | 0.00 | 46 | 1025.2 |
| 20260504173913 | 19 | 218 | 6.4 | 8.0 | 0.00 | 0.00 | 0.00 | 49 | 1025.3 |
| 20260504173409 | 20 | 244 | 9.7 | 14.5 | 0.00 | 0.00 | 0.00 | 49 | 1025.4 |
| 20260504172907 | 19 | 205 | 11.3 | 12.9 | 0.00 | 0.00 | 0.00 | 46 | 1025.3 |
| 20260504172403 | 19 | 264 | 9.7 | 11.3 | 0.00 | 0.00 | 0.00 | 50 | 1025.1 |
| 20260504171859 | 18 | 280 | 17.7 | 20.9 | 0.00 | 0.00 | 0.00 | 48 | 1025.2 |
| 20260504171357 | 18 | 272 | 14.5 | 14.5 | 0.00 | 0.00 | 0.00 | 50 | 1025.2 |
| 20260504170854 | 18 | 251 | 16.1 | 22.5 | 0.00 | 0.00 | 0.00 | 49 | 1025.3 |
| 20260504170350 | 18 | 325 | 9.7 | 12.9 | 0.00 | 0.00 | 0.00 | 49 | 1025.5 |
| 20260504160309 | 16 | 174 | 8.0 | 9.7 | 0.00 | 0.00 | 0.00 | 52 | 1025.7 |
| 20260504150734 | 15 | 279 | 16.1 | 22.5 | 0.00 | 0.00 | 0.00 | 55 | 1026.5 |
| 20260504150231 | 15 | 248 | 8.0 | 8.0 | 0.00 | 0.00 | 0.00 | 57 | 1026.2 |
| 20260504141200 | 13 | 221 | 9.7 | 12.9 | 0.00 | 0.00 | 0.00 | 58 | 1026.5 |
| 20260504140657 | 13 | 184 | 3.2 | 3.2 | 0.00 | 0.00 | 0.00 | 58 | 1026.6 |
| 20260504140152 | 13 | 253 | 6.4 | 8.0 | 0.00 | 0.00 | 0.00 | 58 | 1026.4 |
| 20260504130621 | 11 | 207 | 8.0 | 9.7 | 0.00 | 0.00 | 0.00 | 60 | 1027.3 |
| 20260504130118 | 11 | 275 | 6.4 | 8.0 | 0.00 | 0.00 | 0.00 | 60 | 1027.5 |
| 20260504110509 | 8 | 239 | 4.8 | 8.0 | 0.00 | 0.00 | 0.00 | 64 | 1027.1 |
| 20260504100431 | 7 | 135 | 1.6 | 1.6 | 0.00 | 0.00 | 0.00 | 63 | 1027.0 |
| 20260504081824 | 8 | 224 | 4.8 | 4.8 | 0.00 | 0.00 | 0.00 | 62 | 1027.7 |
| 20260504081320 | 8 | 269 | 4.8 | 4.8 | 0.00 | 0.00 | 0.00 | 62 | 1027.8 |
| 20260504080816 | 8 | 214 | 3.2 | 3.2 | 0.00 | 0.00 | 0.00 | 63 | 1027.6 |
| 20260504080314 | 8 | 222 | 3.2 | 3.2 | 0.00 | 0.00 | 0.00 | 63 | 1028.0 |
| 20260504070241 | 8 | 225 | 3.2 | 3.2 | 0.00 | 0.00 | 0.00 | 62 | 1028.2 |
| 20260504060201 | 8 | 244 | 4.8 | 4.8 | 0.00 | 0.00 | 0.00 | 60 | 1028.3 |
| 20260504050629 | 8 | 237 | 3.2 | 3.2 | 0.00 | 0.00 | 0.00 | 60 | 1028.6 |
| 20260504050126 | 8 | 289 | 4.8 | 8.0 | 0.00 | 0.00 | 0.00 | 59 | 1028.4 |
| 20260504045623 | 8 | 239 | 3.2 | 3.2 | 0.00 | 0.00 | 0.00 | 59 | 1028.4 |
| 20260504045118 | 8 | 290 | 6.4 | 8.0 | 0.00 | 0.00 | 0.00 | 59 | 1028.2 |
| 20260504044616 | 9 | 264 | 6.4 | 9.7 | 0.00 | 0.00 | 0.00 | 58 | 1028.4 |
| 20260504044113 | 8 | 210 | 3.2 | 3.2 | 0.00 | 0.00 | 0.00 | 59 | 1028.4 |
| 20260504043610 | 8 | 224 | 4.8 | 4.8 | 0.00 | 0.00 | 0.00 | 58 | 1028.6 |
| 20260504043107 | 9 | 280 | 4.8 | 4.8 | 0.00 | 0.00 | 0.00 | 58 | 1028.5 |
| 20260504042604 | 8 | 251 | 3.2 | 3.2 | 0.00 | 0.00 | 0.00 | 58 | 1028.6 |
| 20260504042101 | 9 | 222 | 4.8 | 8.0 | 0.00 | 0.00 | 0.00 | 58 | 1028.4 |
| 20260504041556 | 9 | 278 | 4.8 | 4.8 | 0.00 | 0.00 | 0.00 | 58 | 1028.5 |
| 20260504041053 | 9 | 295 | 4.8 | 4.8 | 0.00 | 0.00 | 0.00 | 58 | 1028.6 |
| 20260504040550 | 9 | 214 | 3.2 | 4.8 | 0.00 | 0.00 | 0.00 | 58 | 1028.7 |
| 20260504040047 | 9 | 252 | 3.2 | 4.8 | 0.00 | 0.00 | 0.00 | 58 | 1028.7 |
| 20260504035544 | 9 | 290 | 4.8 | 4.8 | 0.00 | 0.00 | 0.00 | 57 | 1028.5 |
| 20260504035040 | 9 | 248 | 4.8 | 4.8 | 0.00 | 0.00 | 0.00 | 57 | 1028.6 |
| 20260504034538 | 9 | 269 | 4.8 | 4.8 | 0.00 | 0.00 | 0.00 | 57 | 1028.7 |
| 20260504034035 | 9 | 262 | 3.2 | 3.2 | 0.00 | 0.00 | 0.00 | 57 | 1028.3 |
| 20260504033533 | 9 | 218 | 3.2 | 3.2 | 0.00 | 0.00 | 0.00 | 57 | 1028.7 |
| 20260504033030 | 10 | 256 | 1.6 | 3.2 | 0.00 | 0.00 | 0.00 | 57 | 1028.7 |
| 20260504032527 | 9 | 276 | 3.2 | 3.2 | 0.00 | 0.00 | 0.00 | 57 | 1028.5 |
| 20260504032024 | 10 | 267 | 4.8 | 4.8 | 0.00 | 0.00 | 0.00 | 57 | 1028.8 |
| 20260504031521 | 10 | 269 | 3.2 | 3.2 | 0.00 | 0.00 | 0.00 | 57 | 1028.5 |
| 20260504031016 | 10 | 260 | 3.2 | 3.2 | 0.00 | 0.00 | 0.00 | 56 | 1028.7 |
| 20260504030514 | 10 | 258 | 3.2 | 4.8 | 0.00 | 0.00 | 0.00 | 55 | 1028.6 |
| 20260504030010 | 10 | 256 | 1.6 | 3.2 | 0.00 | 0.00 | 0.00 | 55 | 1028.8 |
| 20260504025507 | 10 | 272 | 3.2 | 3.2 | 0.00 | 0.00 | 0.00 | 55 | 1028.9 |
| 20260504025004 | 10 | 237 | 4.8 | 4.8 | 0.00 | 0.00 | 0.00 | 55 | 1028.6 |
| 20260504024502 | 10 | 271 | 8.0 | 9.7 | 0.00 | 0.00 | 0.00 | 54 | 1029.0 |
| 20260504023958 | 10 | 276 | 6.4 | 9.7 | 0.00 | 0.00 | 0.00 | 54 | 1028.9 |
| 20260504023455 | 10 | 279 | 3.2 | 3.2 | 0.00 | 0.00 | 0.00 | 53 | 1028.8 |
| 20260504022950 | 10 | 245 | 4.8 | 4.8 | 0.00 | 0.00 | 0.00 | 54 | 1028.9 |
| 20260504022446 | 10 | 248 | 3.2 | 3.2 | 0.00 | 0.00 | 0.00 | 54 | 1028.7 |
| 20260504021943 | 11 | 292 | 8.0 | 11.3 | 0.00 | 0.00 | 0.00 | 53 | 1029.1 |
| 20260504021441 | 10 | 339 | 6.4 | 9.7 | 0.00 | 0.00 | 0.00 | 52 | 1029.0 |
| 20260504020938 | 11 | 294 | 1.6 | 3.2 | 0.00 | 0.00 | 0.00 | 52 | 1028.9 |
| 20260504020434 | 11 | 237 | 6.4 | 9.7 | 0.00 | 0.00 | 0.00 | 51 | 1029.2 |
| 20260504015931 | 11 | 288 | 8.0 | 9.7 | 0.00 | 0.00 | 0.00 | 50 | 1029.0 |
| 20260504015427 | 11 | 273 | 12.9 | 14.5 | 0.00 | 0.00 | 0.00 | 51 | 1029.0 |
| 20260504014923 | 11 | 294 | 9.7 | 11.3 | 0.00 | 0.00 | 0.00 | 51 | 1029.1 |
| 20260504014419 | 10 | 270 | 6.4 | 9.7 | 0.00 | 0.00 | 0.00 | 52 | 1028.9 |
| 20260504013916 | 11 | 280 | 9.7 | 9.7 | 0.00 | 0.00 | 0.00 | 51 | 1028.8 |
| 20260504013415 | 11 | 302 | 8.0 | 9.7 | 0.00 | 0.00 | 0.00 | 51 | 1028.8 |
| 20260504012910 | 11 | 272 | 4.8 | 4.8 | 0.00 | 0.00 | 0.00 | 51 | 1028.9 |
| 20260504012409 | 11 | 289 | 9.7 | 14.5 | 0.00 | 0.00 | 0.00 | 51 | 1029.0 |
| 20260504011906 | 11 | 250 | 6.4 | 9.7 | 0.00 | 0.00 | 0.00 | 51 | 1028.9 |
| 20260504011403 | 11 | 237 | 8.0 | 11.3 | 0.00 | 0.00 | 0.00 | 52 | 1028.8 |
| 20260504010858 | 11 | 255 | 4.8 | 4.8 | 0.00 | 0.00 | 0.00 | 51 | 1028.8 |
| 20260504010355 | 11 | 219 | 6.4 | 8.0 | 0.00 | 0.00 | 0.00 | 51 | 1029.0 |
| 20260504005851 | 11 | 288 | 6.4 | 8.0 | 0.00 | 0.00 | 0.00 | 50 | 1029.0 |
| 20260504005348 | 11 | 311 | 8.0 | 9.7 | 0.00 | 0.00 | 0.00 | 50 | 1029.2 |
| 20260504004845 | 11 | 241 | 9.7 | 17.7 | 0.00 | 0.00 | 0.00 | 49 | 1029.0 |
| 20260504004343 | 11 | 258 | 8.0 | 11.3 | 0.00 | 0.00 | 0.00 | 48 | 1028.7 |
| 20260504003839 | 11 | 270 | 12.9 | 14.5 | 0.00 | 0.00 | 0.00 | 47 | 1029.1 |
| 20260504003336 | 11 | 283 | 9.7 | 11.3 | 0.00 | 0.00 | 0.00 | 47 | 1028.9 |
| 20260504002833 | 11 | 301 | 17.7 | 20.9 | 0.00 | 0.00 | 0.00 | 46 | 1029.0 |
| 20260504002330 | 11 | 270 | 9.7 | 12.9 | 0.00 | 0.00 | 0.00 | 47 | 1028.9 |
| 20260504001828 | 11 | 289 | 12.9 | 17.7 | 0.00 | 0.00 | 0.00 | 48 | 1028.5 |
| 20260504001325 | 11 | 4 | 8.0 | 11.3 | 0.00 | 0.00 | 0.00 | 48 | 1028.5 |
| 20260504000821 | 11 | 280 | 17.7 | 20.9 | 0.00 | 0.00 | 0.00 | 46 | 1028.7 |
| 20260504000318 | 11 | 281 | 14.5 | 17.7 | 0.00 | 0.00 | 0.00 | 47 | 1028.8 |
| 20260503235816 | 11 | 267 | 17.7 | 27.4 | 0.00 | 0.00 | 0.00 | 45 | 1029.0 |
| 20260503235314 | 11 | 283 | 20.9 | 29.0 | 0.00 | 0.00 | 0.00 | 44 | 1028.6 |
| 20260503234811 | 11 | 271 | 11.3 | 14.5 | 0.00 | 0.00 | 0.00 | 44 | 1028.4 |
| 20260503234308 | 11 | 267 | 8.0 | 9.7 | 0.00 | 0.00 | 0.00 | 44 | 1028.6 |
| 20260503233806 | 11 | 291 | 9.7 | 11.3 | 0.00 | 0.00 | 0.00 | 44 | 1028.7 |
| 20260503233301 | 11 | 257 | 17.7 | 27.4 | 0.00 | 0.00 | 0.00 | 42 | 1028.7 |
| 20260503232759 | 11 | 297 | 8.0 | 11.3 | 0.00 | 0.00 | 0.00 | 43 | 1028.4 |
| 20260503232256 | 12 | 303 | 11.3 | 12.9 | 0.00 | 0.00 | 0.00 | 43 | 1028.5 |
| 20260503231754 | 12 | 256 | 11.3 | 14.5 | 0.00 | 0.00 | 0.00 | 43 | 1028.5 |
| 20260503231251 | 12 | 275 | 14.5 | 17.7 | 0.00 | 0.00 | 0.00 | 42 | 1028.5 |
| 20260503230746 | 12 | 305 | 17.7 | 22.5 | 0.00 | 0.00 | 0.00 | 42 | 1028.4 |
| 20260503230244 | 12 | 129 | 4.8 | 8.0 | 0.00 | 0.00 | 0.00 | 43 | 1028.2 |
| 20260503225741 | 12 | 258 | 11.3 | 16.1 | 0.00 | 0.00 | 0.00 | 43 | 1028.4 |
| 20260503225241 | 12 | 44 | 9.7 | 14.5 | 0.00 | 0.00 | 0.00 | 42 | 1028.2 |
| 20260503224738 | 12 | 291 | 11.3 | 25.7 | 0.00 | 0.00 | 0.00 | 42 | 1028.2 |
| 20260503224236 | 12 | 256 | 11.3 | 12.9 | 0.00 | 0.00 | 0.00 | 41 | 1028.3 |
| 20260503223734 | 12 | 266 | 16.1 | 22.5 | 0.00 | 0.00 | 0.00 | 42 | 1028.1 |
| 20260503223231 | 12 | 306 | 11.3 | 16.1 | 0.00 | 0.00 | 0.00 | 40 | 1028.4 |
| 20260503222727 | 12 | 276 | 16.1 | 25.7 | 0.00 | 0.00 | 0.00 | 41 | 1028.3 |
| 20260503222225 | 12 | 245 | 24.1 | 27.4 | 0.00 | 0.00 | 0.00 | 41 | 1028.6 |
| 20260503221723 | 12 | 284 | 14.5 | 16.1 | 0.00 | 0.00 | 0.00 | 41 | 1028.1 |
| 20260503221221 | 12 | 281 | 6.4 | 9.7 | 0.00 | 0.00 | 0.00 | 42 | 1028.1 |
| 20260503220717 | 12 | 284 | 14.5 | 17.7 | 0.00 | 0.00 | 0.00 | 41 | 1028.3 |
| 20260503220214 | 12 | 272 | 6.4 | 9.7 | 0.00 | 0.00 | 0.00 | 43 | 1028.3 |
| 20260503215711 | 12 | 269 | 11.3 | 12.9 | 0.00 | 0.00 | 0.00 | 42 | 1027.8 |
| 20260503215208 | 12 | 270 | 12.9 | 17.7 | 0.00 | 0.00 | 0.00 | 42 | 1028.2 |
| 20260503214706 | 12 | 294 | 12.9 | 17.7 | 0.00 | 0.00 | 0.00 | 42 | 1028.1 |
| 20260503214201 | 12 | 271 | 11.3 | 12.9 | 0.00 | 0.00 | 0.00 | 41 | 1028.2 |
| 20260503213655 | 13 | 280 | 8.0 | 14.5 | 0.00 | 0.00 | 0.00 | 42 | 1028.1 |
| 20260503213152 | 12 | 216 | 6.4 | 8.0 | 0.00 | 0.00 | 0.00 | 42 | 1027.8 |
| 20260503212649 | 13 | 289 | 11.3 | 14.5 | 0.00 | 0.00 | 0.00 | 44 | 1028.1 |
| 20260503212146 | 12 | 282 | 4.8 | 8.0 | 0.00 | 0.00 | 0.00 | 45 | 1027.8 |
| 20260503211644 | 12 | 303 | 8.0 | 11.3 | 0.00 | 0.00 | 0.00 | 46 | 1028.1 |
| 20260503211139 | 11 | 281 | 8.0 | 9.7 | 0.00 | 0.00 | 0.00 | 47 | 1028.0 |
| 20260503210636 | 11 | 241 | 8.0 | 9.7 | 0.00 | 0.00 | 0.00 | 46 | 1028.1 |
| 20260503210133 | 11 | 323 | 4.8 | 4.8 | 0.00 | 0.00 | 0.00 | 49 | 1027.7 |
| 20260503205628 | 11 | 281 | 4.8 | 4.8 | 0.00 | 0.00 | 0.00 | 47 | 1027.8 |
| 20260503205125 | 12 | 337 | 9.7 | 11.3 | 0.00 | 0.00 | 0.00 | 45 | 1028.2 |
| 20260503204621 | 11 | 295 | 6.4 | 8.0 | 0.00 | 0.00 | 0.00 | 46 | 1028.3 |
| 20260503204119 | 12 | 279 | 8.0 | 9.7 | 0.00 | 0.00 | 0.00 | 47 | 1028.1 |
| 20260503203616 | 12 | 274 | 9.7 | 11.3 | 0.00 | 0.00 | 0.00 | 45 | 1028.2 |
| 20260503203114 | 12 | 8 | 3.2 | 4.8 | 0.00 | 0.00 | 0.00 | 45 | 1028.4 |
| 20260503202611 | 11 | 249 | 8.0 | 9.7 | 0.00 | 0.00 | 0.00 | 47 | 1028.4 |
| 20260503202109 | 11 | 293 | 11.3 | 16.1 | 0.00 | 0.00 | 0.00 | 45 | 1028.4 |